Location: Crescent
(42.8242°N, 73.7329°W)
Time: 08:44:53
(UTC+00:00)

Vanguard 1 Rocket - Pass Details

Date: 26 February 2026
Orbit: 653 x 4214 km, 34.3° (Epoch: 12 March)

Event Time Altitude Azimuth Distance (km) Brightness Sun altitude
Rises 16:28:11 0° 235° (SW) 3,370 10.6 37.9°
Reaches altitude 10° 16:30:21 10° 227° (SW) 2,648 10.3 37.9°
Maximum altitude 16:36:12 41° 158° (SSE) 1,829 11.5 38.1°
Drops below altitude 10° 16:46:30 10° 95° (E) 4,649 11.2 38.4°
Sets 16:51:40 0° 89° (E) 6,275 11.7 38.5°
